Location: Hoyos del Collado
(40.3594°N, 5.2003°W)
Time: 19:40:27
(UTC+00:00)

ISS - Pass Details

Date: 24 June 2024
Orbit: 409 x 423 km, 51.6° (Epoch: 22 July)

Event Time Altitude Azimuth Distance (km) Brightness Sun altitude
Reaches altitude 10° 04:03:27 10° 249° (WSW) 1,480 -1.6 -8.3°
Exits shadow 04:03:27 10° 249° (WSW) 1,480 -1.6 -8.3°
Maximum altitude 04:06:42 51° 327° (NNW) 527 -3.2 -7.8°
Drops below altitude 10° 04:09:59 10° 45° (NE) 1,498 0.8 -7.3°
Sets 04:12:08 0° 51° (NE) 2,369 2.8 -7.0°
